Location: Unspecified
(35.7250°N, 0.0000°E)
Time: 14:07:42
(UTC+00:00)

SR - Pass Details

Date: 25 June 2019
Orbit: 578 x 878 km, 66.7° (Epoch: 24 August)

Event Time Altitude Azimuth Distance (km) Brightness Sun altitude
Exits shadow 02:24:05 56° 149° (SSE) 687 ? -22.1°
Maximum altitude 02:24:34 62° 115° (ESE) 654 ? -22.0°
Drops below altitude 10° 02:28:46 10° 34° (NE) 1,908 ? -21.5°
Sets 02:31:03 0° 31° (NNE) 2,832 ? -21.2°
